Radiation Dose at Monitoring Post of Fukushima Daini Nuclear Power Station
Date,Time,MP-1(microSv/h),MP-2(microSv/h),MP-3(microSv/h),MP-4(microSv/h),MP-5(microSv/h),MP-6(microSv/h),MP-7(microSv/h),Wind Direction,Wind Velocity(m/s),Rain
2022/12/25,00:00,0.151,0.137,0.212,0.210,0.211,0.121,0.077,west,4.1,No
2022/12/25,00:10,0.152,0.137,0.213,0.211,0.210,0.120,0.077,west-northwest,4.3,No
2022/12/25,00:20,0.152,0.137,0.213,0.210,0.211,0.120,0.077,west-northwest,4.2,No
2022/12/25,00:30,0.152,0.138,0.213,0.210,0.211,0.121,0.077,west-northwest,5.8,No
2022/12/25,00:40,0.152,0.137,0.213,0.210,0.211,0.120,0.077,west,4.6,No
2022/12/25,00:50,0.152,0.137,0.214,0.209,0.211,0.120,0.076,west,4.2,No
2022/12/25,01:00,0.152,0.138,0.213,0.211,0.210,0.119,0.078,west-northwest,4.2,No
2022/12/25,01:10,0.152,0.137,0.214,0.211,0.210,0.120,0.077,west,3.7,No
2022/12/25,01:20,0.152,0.138,0.213,0.210,0.211,0.120,0.076,west-northwest,4.4,No
2022/12/25,01:30,0.152,0.137,0.213,0.210,0.211,0.121,0.077,west-northwest,3.9,No
2022/12/25,01:40,0.153,0.137,0.213,0.210,0.211,0.120,0.077,west-northwest,3.3,No
2022/12/25,01:50,0.152,0.137,0.212,0.210,0.211,0.120,0.077,west-southwest,2.1,No
2022/12/25,02:00,0.153,0.137,0.212,0.211,0.210,0.120,0.077,west-northwest,2.4,No
2022/12/25,02:10,0.151,0.137,0.213,0.209,0.210,0.121,0.077,west-northwest,4.6,No
2022/12/25,02:20,0.152,0.138,0.212,0.210,0.211,0.120,0.077,west,5.1,No
2022/12/25,02:30,0.151,0.137,0.214,0.210,0.210,0.121,0.077,west-northwest,4.9,No
2022/12/25,02:40,0.152,0.137,0.213,0.209,0.211,0.120,0.076,west-northwest,5.1,No
2022/12/25,02:50,0.153,0.137,0.212,0.210,0.211,0.121,0.077,west,5.3,No
2022/12/25,03:00,0.151,0.138,0.213,0.209,0.211,0.120,0.077,west-northwest,6.4,No
2022/12/25,03:10,0.152,0.136,0.213,0.210,0.210,0.120,0.077,northwest,4.6,No
2022/12/25,03:20,0.152,0.138,0.213,0.209,0.211,0.120,0.077,northwest,4.0,No
2022/12/25,03:30,0.151,0.138,0.213,0.211,0.211,0.119,0.077,west-northwest,6.3,No
2022/12/25,03:40,0.152,0.138,0.213,0.211,0.211,0.120,0.077,west-northwest,6.8,No
2022/12/25,03:50,0.153,0.138,0.213,0.211,0.210,0.121,0.076,west,7.3,No
2022/12/25,04:00,0.151,0.137,0.213,0.210,0.210,0.121,0.077,west,8.2,No
2022/12/25,04:10,0.152,0.137,0.213,0.210,0.210,0.121,0.077,west,9.0,No
2022/12/25,04:20,0.151,0.138,0.214,0.210,0.210,0.120,0.077,west,7.8,No
2022/12/25,04:30,0.152,0.137,0.213,0.211,0.211,0.120,0.077,west,6.2,No
2022/12/25,04:40,0.151,0.137,0.213,0.209,0.211,0.120,0.077,west-southwest,5.3,No
2022/12/25,04:50,0.152,0.138,0.213,0.210,0.210,0.121,0.077,west,4.6,No
2022/12/25,05:00,0.151,0.138,0.212,0.210,0.211,0.121,0.077,west-southwest,5.5,No
2022/12/25,05:10,0.152,0.137,0.214,0.210,0.211,0.121,0.077,west-southwest,4.1,No
2022/12/25,05:20,0.152,0.138,0.213,0.210,0.211,0.121,0.077,west,4.1,No
2022/12/25,05:30,0.151,0.137,0.213,0.210,0.209,0.121,0.077,west,4.7,No
2022/12/25,05:40,0.151,0.138,0.213,0.209,0.210,0.120,0.077,west,4.6,No
2022/12/25,05:50,0.151,0.137,0.214,0.210,0.211,0.120,0.076,west-northwest,3.8,No
2022/12/25,06:00,0.152,0.137,0.213,0.209,0.211,0.121,0.076,west-northwest,3.5,No
2022/12/25,06:10,0.152,0.137,0.213,0.208,0.211,0.121,0.076,west-northwest,2.8,No
2022/12/25,06:20,0.153,0.137,0.213,0.210,0.209,0.121,0.076,west-northwest,1.9,No
2022/12/25,06:30,0.152,0.138,0.213,0.209,0.211,0.120,0.077,west,3.1,No
2022/12/25,06:40,0.152,0.137,0.213,0.211,0.212,0.121,0.076,west-northwest,2.6,No
2022/12/25,06:50,0.152,0.138,0.213,0.209,0.210,0.121,0.077,west-northwest,2.7,No
2022/12/25,07:00,0.152,0.138,0.213,0.210,0.211,0.120,0.076,northwest,1.9,No
2022/12/25,07:10,0.152,0.137,0.213,0.210,0.211,0.120,0.077,-,CALM,No
2022/12/25,07:20,0.151,0.138,0.214,0.210,0.211,0.121,0.077,-,CALM,No
2022/12/25,07:30,0.151,0.139,0.215,0.210,0.211,0.121,0.077,west-northwest,0.9,No
2022/12/25,07:40,0.151,0.137,0.213,0.209,0.210,0.120,0.077,northwest,1.8,No
2022/12/25,07:50,0.153,0.137,0.214,0.210,0.211,0.121,0.077,-,CALM,No
2022/12/25,08:00,0.152,0.138,0.213,0.209,0.212,0.120,0.077,north,0.8,No
2022/12/25,08:10,0.152,0.138,0.213,0.209,0.211,0.120,0.076,northwest,2.3,No
2022/12/25,08:20,0.152,0.136,0.214,0.210,0.211,0.121,0.077,west-northwest,3.3,No
2022/12/25,08:30,0.152,0.138,0.213,0.209,0.211,0.121,0.077,west,4.3,No
2022/12/25,08:40,0.152,0.138,0.214,0.209,0.210,0.121,0.077,west-northwest,6.2,No
2022/12/25,08:50,0.152,0.136,0.213,0.210,0.210,0.120,0.076,west-northwest,7.9,No
2022/12/25,09:00,0.152,0.137,0.212,0.209,0.210,0.121,0.077,west-northwest,4.7,No
2022/12/25,09:10,0.152,0.138,0.214,0.210,0.210,0.120,0.076,west-northwest,4.5,No
2022/12/25,09:20,0.152,0.137,0.214,0.210,0.211,0.120,0.077,west-northwest,4.9,No
2022/12/25,09:30,0.151,0.138,0.213,0.209,0.210,0.121,0.076,west-northwest,3.8,No
2022/12/25,09:40,0.152,0.137,0.213,0.208,0.210,0.120,0.076,west-northwest,7.9,No
2022/12/25,09:50,0.151,0.138,0.213,0.210,0.211,0.121,0.077,west-northwest,8.4,No
2022/12/25,10:00,0.152,0.137,0.213,0.211,0.211,0.121,0.077,west-northwest,8.4,No
2022/12/25,10:10,0.151,0.136,0.213,0.210,0.210,0.121,0.077,west,10.9,No
2022/12/25,10:20,0.151,0.137,0.213,0.211,0.211,0.121,0.078,west-northwest,9.6,No
2022/12/25,10:30,0.152,0.137,0.213,0.209,0.211,0.121,0.077,west-northwest,10.6,No
2022/12/25,10:40,0.152,0.137,0.212,0.209,0.210,0.121,0.077,northwest,9.5,No
2022/12/25,10:50,0.153,0.137,0.213,0.210,0.210,0.121,0.077,west-northwest,8.9,No
2022/12/25,11:00,0.151,0.138,0.212,0.210,0.212,0.121,0.077,west-northwest,7.4,No
2022/12/25,11:10,0.152,0.137,0.212,0.209,0.211,0.121,0.077,west,6.1,No
2022/12/25,11:20,0.153,0.137,0.213,0.210,0.211,0.121,0.076,west-northwest,7.0,No
2022/12/25,11:30,0.151,0.138,0.212,0.210,0.212,0.121,0.076,west-northwest,7.5,No
2022/12/25,11:40,0.152,0.138,0.212,0.210,0.210,0.121,0.077,west-northwest,8.6,No
2022/12/25,11:50,0.152,0.137,0.213,0.211,0.211,0.121,0.077,west-northwest,5.8,No
2022/12/25,12:00,0.152,0.137,0.213,0.210,0.210,0.121,0.077,northwest,4.9,No
2022/12/25,12:10,0.152,0.138,0.212,0.210,0.211,0.121,0.077,west-northwest,5.5,No
2022/12/25,12:20,0.152,0.137,0.214,0.211,0.211,0.121,0.077,west,7.4,No
2022/12/25,12:30,0.152,0.138,0.212,0.208,0.211,0.121,0.077,west,6.8,No
2022/12/25,12:40,0.152,0.137,0.213,0.210,0.211,0.120,0.076,west-northwest,9.3,No
2022/12/25,12:50,0.151,0.137,0.213,0.209,0.210,0.120,0.076,west-northwest,7.8,No
2022/12/25,13:00,0.152,0.138,0.212,0.210,0.212,0.120,0.077,west,4.7,No
2022/12/25,13:10,0.151,0.137,0.214,0.210,0.212,0.121,0.077,west-northwest,6.5,No
2022/12/25,13:20,0.152,0.137,0.214,0.210,0.211,0.122,0.077,west,4.8,No
2022/12/25,13:30,0.151,0.137,0.214,0.211,0.213,0.122,0.076,west,4.7,No
2022/12/25,13:40,0.152,0.138,0.213,0.210,0.211,0.121,0.077,west-northwest,3.5,No
2022/12/25,13:50,0.151,0.137,0.214,0.210,0.212,0.120,0.077,west-northwest,4.0,No
2022/12/25,14:00,0.152,0.137,0.213,0.208,0.210,0.120,0.076,west-northwest,5.8,No
2022/12/25,14:10,0.153,0.137,0.214,0.211,0.212,0.120,0.077,west,6.8,No
2022/12/25,14:20,0.151,0.137,0.214,0.211,0.211,0.121,0.077,west,4.9,No
2022/12/25,14:30,0.153,0.137,0.213,0.211,0.213,0.121,0.077,west,3.0,No
2022/12/25,14:40,0.152,0.137,0.214,0.210,0.212,0.122,0.077,west,7.3,No
2022/12/25,14:50,0.152,0.137,0.213,0.210,0.210,0.120,0.076,west-northwest,8.5,No
2022/12/25,15:00,0.152,0.137,0.214,0.210,0.213,0.120,0.077,west-northwest,3.3,No
2022/12/25,15:10,0.152,0.138,0.214,0.211,0.211,0.120,0.077,west,4.4,No
2022/12/25,15:20,0.151,0.138,0.213,0.210,0.212,0.120,0.076,west-northwest,2.8,No
2022/12/25,15:30,0.152,0.138,0.213,0.212,0.213,0.121,0.076,west,6.2,No
2022/12/25,15:40,0.153,0.137,0.213,0.211,0.212,0.120,0.076,west,6.7,No
2022/12/25,15:50,0.153,0.138,0.214,0.210,0.212,0.122,0.078,west,8.5,No
2022/12/25,16:00,0.152,0.138,0.214,0.211,0.211,0.121,0.077,west,7.6,No
2022/12/25,16:10,0.152,0.137,0.214,0.212,0.212,0.122,0.077,west,7.1,No
2022/12/25,16:20,0.153,0.138,0.214,0.212,0.211,0.121,0.077,west,8.8,No
2022/12/25,16:30,0.152,0.138,0.213,0.211,0.211,0.120,0.077,west,8.9,No
2022/12/25,16:40,0.151,0.137,0.215,0.210,0.212,0.121,0.076,west,6.8,No
2022/12/25,16:50,0.152,0.138,0.213,0.211,0.212,0.122,0.077,west,9.8,No
2022/12/25,17:00,0.152,0.138,0.215,0.211,0.212,0.121,0.076,west-northwest,10.6,No
2022/12/25,17:10,0.152,0.137,0.214,0.210,0.212,0.122,0.077,west-northwest,9.8,No
2022/12/25,17:20,0.151,0.138,0.213,0.211,0.212,0.121,0.077,west,10.3,No
2022/12/25,17:30,0.151,0.138,0.212,0.211,0.212,0.122,0.077,west-northwest,8.5,No
2022/12/25,17:40,0.153,0.139,0.215,0.212,0.212,0.121,0.077,west-northwest,11.5,No
2022/12/25,17:50,0.151,0.138,0.214,0.211,0.212,0.121,0.077,west-northwest,11.1,No
2022/12/25,18:00,0.152,0.137,0.214,0.211,0.212,0.121,0.077,west,9.0,No
2022/12/25,18:10,0.153,0.137,0.215,0.212,0.212,0.121,0.077,west,7.5,No
2022/12/25,18:20,0.153,0.139,0.213,0.212,0.211,0.121,0.077,west-northwest,5.8,No
2022/12/25,18:30,0.152,0.139,0.215,0.210,0.211,0.121,0.077,west-northwest,7.8,No
2022/12/25,18:40,0.153,0.137,0.214,0.210,0.211,0.122,0.077,west-northwest,7.3,No
2022/12/25,18:50,0.153,0.138,0.214,0.211,0.212,0.121,0.077,west-northwest,5.3,No
2022/12/25,19:00,0.154,0.138,0.214,0.210,0.212,0.121,0.077,west-northwest,6.4,No
2022/12/25,19:10,0.153,0.138,0.214,0.211,0.211,0.121,0.077,west-northwest,6.4,No
2022/12/25,19:20,0.152,0.138,0.214,0.211,0.212,0.122,0.077,west,5.3,No
2022/12/25,19:30,0.153,0.137,0.213,0.212,0.211,0.120,0.077,west-northwest,5.7,No
2022/12/25,19:40,0.153,0.138,0.214,0.212,0.212,0.122,0.077,west-northwest,6.3,No
2022/12/25,19:50,0.153,0.138,0.214,0.210,0.211,0.121,0.077,west-northwest,6.0,No
2022/12/25,20:00,0.153,0.138,0.214,0.211,0.212,0.121,0.077,west-northwest,7.3,No
2022/12/25,20:10,0.152,0.139,0.214,0.211,0.211,0.121,0.077,northwest,7.0,No
2022/12/25,20:20,0.152,0.138,0.214,0.212,0.211,0.121,0.077,northwest,8.2,No
2022/12/25,20:30,0.153,0.138,0.214,0.211,0.212,0.121,0.077,west-northwest,9.2,No
2022/12/25,20:40,0.153,0.138,0.213,0.210,0.211,0.122,0.077,west-northwest,6.7,No
2022/12/25,20:50,0.153,0.138,0.215,0.211,0.211,0.121,0.076,west-northwest,6.4,No
2022/12/25,21:00,0.152,0.138,0.214,0.212,0.211,0.121,0.078,west-northwest,5.7,No
2022/12/25,21:10,0.152,0.138,0.214,0.211,0.210,0.121,0.077,northwest,6.0,No
2022/12/25,21:20,0.153,0.139,0.214,0.211,0.211,0.121,0.077,northwest,6.1,No
2022/12/25,21:30,0.152,0.138,0.214,0.212,0.211,0.121,0.078,west-northwest,7.6,No
2022/12/25,21:40,0.153,0.138,0.215,0.211,0.211,0.120,0.077,west,9.0,No
2022/12/25,21:50,0.152,0.139,0.215,0.210,0.211,0.122,0.077,west,10.0,No
2022/12/25,22:00,0.152,0.138,0.214,0.210,0.212,0.121,0.077,west,9.5,No
2022/12/25,22:10,0.153,0.138,0.214,0.210,0.211,0.122,0.077,west,9.2,No
2022/12/25,22:20,0.152,0.138,0.214,0.211,0.212,0.121,0.077,west-northwest,7.1,No
2022/12/25,22:30,0.152,0.138,0.214,0.211,0.211,0.121,0.077,northwest,4.8,No
2022/12/25,22:40,0.153,0.138,0.215,0.211,0.213,0.121,0.078,west-northwest,5.8,No
2022/12/25,22:50,0.153,0.139,0.216,0.211,0.213,0.122,0.077,west-northwest,3.7,No
2022/12/25,23:00,0.152,0.139,0.213,0.211,0.212,0.122,0.077,west-northwest,2.1,No
2022/12/25,23:10,0.152,0.138,0.214,0.212,0.212,0.121,0.077,northwest,4.2,No
2022/12/25,23:20,0.153,0.138,0.213,0.212,0.212,0.121,0.077,northwest,4.0,No
2022/12/25,23:30,0.152,0.138,0.214,0.212,0.211,0.122,0.078,north-northwest,4.9,No
2022/12/25,23:40,0.152,0.138,0.215,0.212,0.212,0.121,0.078,north-northwest,3.4,No
2022/12/25,23:50,0.153,0.138,0.215,0.210,0.212,0.121,0.077,north-northwest,4.5,No
